Temp
70 69 69 70 70 69 69 69 70 69 68 69 68 68 69 66 64 62 59 61 63 66 71 70 69 72 72 72 72 73 72 74 75 74 74 73 72 73 73 73 72 72 72 72 73 73 74 73 74 75 75 75 76 76 75 75 75 75 75 75 75 75 75 74 73 73 73 73 73 72 73 73 74 74
71 71 70 70 70 71 70 69 70 69 69 68 68 67 67 69 68 64 63 63 63 64 66 71 70 68 71 73 72 72 73 75 76 74 73 73 73 72 72 73 72 72 72 72 71 72 73 73 73 73 73 73 74 75 75 75 74 74 74 74 75 75 75 73 73 73 72 72 73 72 72 73 73 72
71 70 70 69 69 71 70 70 70 70 69 68 67 67 68 67 69 67 64 63 64 68 70 70 73 71 70 74 74 73 73 74 76 74 73 73 74 74 73 72 72 72 71 71 70 70 70 70 71 71 71 71 72 73 74 74 74 74 74 74 74 74 74 73 72 72 72 72 72 72 71 71 71 71
72 71 71 71 70 70 69 70 70 69 70 69 67 68 68 67 67 67 65 65 69 65 68 68 69 71 71 71 72 73 73 74 76 74 74 74 76 75 73 74 72 71 70 70 70 69 68 68 69 70 71 71 72 73 73 72 73 73 73 73 73 73 73 71 71 71 71 71 71 70 70 71 71 71
73 72 72 72 72 71 70 70 71 70 70 69 69 68 67 67 67 67 66 66 68 68 65 67 69 68 69 69 70 71 72 72 72 75 74 73 73 73 73 73 73 72 70 69 69 69 69 68 69 70 71 71 72 72 73 72 71 71 70 70 70 70 70 70 69 70 70 70 70 70 70 70 70 70
73 73 72 72 72 71 71 71 71 71 71 70 69 68 68 67 67 67 68 67 64 70 67 66 67 68 68 70 67 71 71 71 71 71 73 73 73 73 73 72 73 73 71 69 68 68 68 68 68 69 70 70 71 71 71 70 69 69 69 68 67 67 67 67 68 69 69 69 69 69 69 69 69 69
73 72 72 73 73 72 71 71 72 72 71 71 70 70 69 69 69 67 68 67 67 67 70 67 68 69 68 69 70 69 71 72 71 71 71 73 73 73 73 73 73 73 71 70 69 68 68 68 68 68 69 69 69 69 68 67 67 67 66 65 66 67 66 66 66 67 67 68 68 69 69 68 68 68
73 73 72 73 73 73 71 72 71 71 71 70 70 70 70 69 70 69 67 68 69 68 67 68 68 68 68 68 69 69 69 70 70 71 72 72 72 72 73 73 73 73 71 70 69 69 68 67 67 67 67 67 67 66 66 65 66 65 65 65 65 64 64 64 64 66 65 65 66 67 67 67 67 64
74 74 73 74 74 72 71 72 72 72 71 71 70 71 71 70 70 70 69 68 67 67 68 70 67 66 67 68 68 67 69 68 68 68 69 71 71 71 73 73 74 73 71 70 70 69 68 68 67 67 67 67 66 66 65 65 65 64 64 64 64 63 64 63 62 63 63 63 64 62 63 64 65 64
75 75 74 75 74 73 72 73 73 73 72 72 71 71 71 71 70 69 68 68 68 67 69 69 70 66 67 67 67 68 68 69 69 68 68 68 69 69 70 72 74 75 74 73 72 69 68 68 67 67 67 67 66 66 65 64 64 63 63 61 60 62 62 62 62 62 61 62 63 63 62 63 63 63
76 76 76 75 74 74 73 73 74 73 72 72 72 72 72 72 69 69 69 68 67 68 68 69 69 69 69 67 69 68 68 69 69 70 68 68 70 69 70 70 72 74 74 73 73 73 72 71 69 65 64 65 66 66 65 64 63 62 61 60 59 60 60 60 61 62 61 61 61 60 59 60 63 63
77 77 77 76 76 75 75 75 75 74 73 73 72 73 72 72 70 69 69 68 68 68 68 68 70 69 69 65 66 66 65 65 66 67 69 69 71 69 69 70 71 72 72 72 73 72 71 70 69 66 66 66 66 66 66 66 66 64 62 60 61 61 60 60 60 60 60 59 58 58 58 57 59 61
77 77 77 77 77 77 75 71 71 72 71 74 72 73 72 71 71 70 69 69 68 68 68 68 69 68 67 67 67 66 66 67 70 70 67 69 71 71 69 70 70 72 71 71 72 72 72 72 71 70 68 68 68 67 67 67 68 66 62 61 62 62 62 60 60 60 60 59 58 57 57 58 58 60
77 77 78 79 75 71 70 69 67 66 66 67 73 76 73 72 71 71 70 69 69 68 68 68 69 68 68 69 69 69 70 71 70 69 67 67 70 66 67 69 69 70 71 70 70 71 73 72 72 70 70 71 71 69 67 67 67 67 64 62 62 62 63 61 60 60 60 59 58 57 56 57 58 59
77 77 77 78 77 74 70 71 67 65 65 65 65 66 69 71 74 72 70 70 70 69 69 70 69 69 69 71 72 71 71 71 71 71 70 69 68 67 66 66 70 69 71 69 69 71 72 71 70 71 71 71 70 70 69 68 67 66 65 63 63 62 63 63 62 61 60 59 58 58 57 57 57 57
77 77 77 78 78 78 78 77 75 70 65 64 64 64 64 65 66 69 74 74 71 70 70 69 70 70 70 71 72 72 72 71 71 70 70 69 68 68 66 67 68 70 70 70 68 69 71 69 71 71 72 71 71 72 69 68 67 66 65 64 63 63 63 63 63 63 61 60 60 60 60 58 59 58
77 77 77 77 78 79 75 76 76 76 75 66 62 62 63 62 63 64 65 67 75 76 72 71 71 72 72 71 73 74 74 73 70 70 69 69 69 69 69 70 71 71 69 70 67 68 71 68 69 70 72 72 71 72 69 68 67 66 65 64 64 64 63 63 63 63 62 61 60 60 60 58 59 58
78 78 77 77 77 78 78 77 77 77 76 76 75 71 69 69 69 64 62 62 62 67 74 75 73 75 75 74 75 76 75 72 71 71 70 71 70 69 69 72 73 71 70 70 68 66 68 67 69 69 71 72 71 71 69 66 66 66 65 64 64 63 63 62 62 62 62 61 60 59 58 57 57 57
79 78 78 78 78 78 78 78 77 77 76 76 76 75 75 74 73 73 74 72 71 70 71 73 75 77 77 77 77 78 77 76 75 75 74 74 74 74 73 72 72 70 70 71 69 67 69 66 67 69 70 70 70 71 68 66 65 65 64 64 64 63 62 62 62 62 61 61 60 59 58 57 56 56
79 79 79 78 78 78 78 73 67 70 77 77 76 75 76 76 76 76 70 69 71 74 75 75 76 78 79 73 78 79 80 78 77 77 77 75 73 71 69 69 72 71 70 71 70 68 68 65 68 69 70 69 69 70 70 66 65 65 64 64 63 63 61 61 61 61 61 60 60 59 57 55 55 54
80 79 79 78 79 78 78 72 67 65 65 75 76 76 76 76 77 77 77 68 65 65 65 65 66 67 67 67 66 65 66 73 75 74 72 71 73 68 67 68 69 69 68 68 69 68 66 66 66 67 68 68 69 69 69 69 65 63 63 63 62 62 60 60 59 60 60 60 60 60 59 56 55 55
79 80 76 79 79 78 79 69 65 64 66 72 75 76 75 75 76 77 78 77 72 63 63 64 64 65 65 65 65 65 65 64 65 71 69 74 73 68 68 65 66 67 66 67 69 67 66 66 66 66 65 65 66 70 70 70 68 64 61 60 62 61 60 59 58 59 59 60 60 59 58 56 55 56
78 79 78 75 73 76 75 67 64 63 65 74 75 75 75 75 75 78 78 78 78 76 72 71 70 70 67 69 70 71 65 64 67 70 72 74 73 69 67 66 66 64 67 69 70 66 66 67 66 67 64 63 66 67 70 69 69 68 67 65 64 60 60 59 58 57 58 59 59 59 57 56 55 57
76 78 78 76 66 63 63 61 59 58 57 69 75 76 75 75 75 80 79 78 76 72 71 73 74 74 75 75 75 74 75 74 73 72 73 73 72 69 68 67 66 64 66 67 70 67 68 68 66 67 68 65 64 63 66 67 68 68 68 66 65 61 61 60 58 57 56 57 57 58 57 55 55 57
76 76 77 78 71 62 59 57 56 55 55 57 68 71 74 76 74 65 69 73 71 68 69 70 71 72 73 75 76 76 76 76 76 76 74 74 74 71 68 67 66 66 68 69 68 70 67 68 67 67 66 67 66 60 62 66 66 67 67 67 66 63 62 61 61 60 56 56 55 55 55 54 54 57
76 77 77 78 62 54 52 52 52 52 53 53 61 66 59 58 58 64 67 67 67 68 67 67 69 70 71 73 73 74 75 76 77 78 78 77 76 76 73 70 68 66 67 70 66 69 68 67 69 66 65 64 63 63 59 60 63 64 65 66 67 64 63 62 62 61 60 59 58 55 57 54 55 56
77 73 70 65 57 53 51 52 51 52 52 53 60 55 54 54 55 57 63 64 65 67 66 66 67 68 70 70 71 72 73 75 76 78 79 80 79 78 76 73 73 71 71 71 70 71 70 68 69 67 65 65 63 62 62 61 59 61 61 62 64 63 64 64 63 63 61 60 61 56 54 54 53 55
68 68 68 61 51 53 51 53 53 53 53 60 54 51 52 53 54 61 63 64 65 65 65 65 66 66 68 69 69 70 72 74 75 76 77 78 79 78 76 76 75 74 73 72 70 70 70 69 69 69 68 65 64 61 60 62 61 60 60 61 62 62 63 64 64 64 63 61 61 59 58 58 56 54
66 57 52 51 54 54 54 54 56 58 58 56 54 53 53 58 63 62 63 63 63 63 63 64 65 66 67 69 70 71 72 72 73 72 72 73 74 74 75 75 74 73 74 73 71 70 70 69 69 69 68 67 65 64 63 60 59 59 61 59 58 59 61 63 64 64 62 61 60 59 60 61 58 57
55 54 55 55 56 57 57 61 63 64 64 57 56 56 58 61 61 61 61 61 61 61 62 62 63 64 66 67 69 70 70 69 67 68 68 68 69 70 70 70 70 72 73 73 72 71 71 70 69 69 67 67 66 65 63 60 58 60 61 60 61 61 61 62 63 63 63 60 60 59 60 60 60 58
62 61 62 61 57 58 58 60 62 61 60 60 60 60 60 60 60 60 60 61 61 61 61 62 63 64 66 67 66 65 65 65 66 67 66 66 66 68 68 68 68 69 70 71 72 71 71 71 70 70 66 66 65 65 63 61 59 59 60 61 61 59 59 60 61 62 62 61 59 58 58 56 58 61
64 63 59 57 62 63 63 62 61 60 59 59 59 60 60 60 61 62 61 60 60 60 61 62 62 62 62 61 62 63 62 63 64 65 64 65 65 66 66 65 65 67 68 68 69 70 71 71 70 69 69 67 64 64 63 61 60 59 59 60 62 62 61 61 61 61 60 60 58 57 56 57 57 57
62 61 61 61 61 61 60 59 59 59 60 60 59 59 61 61 61 60 59 60 61 61 61 60 60 61 61 61 62 61 61 61 62 63 63 64 64 65 65 64 64 65 65 66 67 68 68 68 69 69 68 68 68 66 61 59 58 58 58 57 58 58 60 62 62 59 58 60 59 58 55 54 56 58
60 60 60 59 59 59 58 58 59 59 60 61 61 61 59 59 60 60 60 60 60 61 60 60 60 61 61 61 61 61 61 61 61 62 61 62 63 62 62 62 63 65 65 66 66 66 66 67 67 67 67 66 64 63 63 61 57 57 57 56 56 57 59 61 60 59 60 60 58 57 56 55 56 55
60 60 60 60 59 59 58 59 60 61 61 62 62 61 60 60 60 60 60 60 60 60 60 60 61 61 61 60 61 60 60 60 60 61 62 62 62 62 62 62 63 64 64 64 65 66 66 65 64 60 58 58 58 57 62 63 58 57 56 56 58 56 57 59 58 58 58 56 58 58 56 56 57 55
59 59 60 60 60 60 60 60 62 62 62 62 62 61 61 60 60 59 60 59 60 59 59 60 60 60 60 60 60 60 59 59 59 60 60 61 61 62 63 63 63 64 65 65 65 65 65 63 61 59 57 56 56 55 55 60 61 57 55 54 55 55 56 57 58 57 57 56 57 58 56 56 56 57
60 60 61 61 62 61 61 62 61 62 62 62 61 61 61 60 60 60 60 59 59 59 59 59 60 60 60 60 59 59 59 59 59 59 60 61 62 62 62 62 62 63 63 64 65 63 62 61 61 60 58 56 55 54 52 55 57 60 57 54 54 56 56 56 56 55 56 57 55 57 56 55 55 56
60 61 61 61 61 61 61 61 61 61 61 61 61 61 61 61 61 60 60 59 58 58 59 59 59 59 59 59 59 59 59 59 59 59 60 61 61 61 62 62 62 63 63 64 62 62 62 61 60 60 58 56 55 51 50 53 54 55 56 57 54 55 56 56 55 55 53 54 57 56 53 55 56 56
61 61 61 61 61 61 61 61 61 60 61 61 60 60 60 60 60 59 58 58 58 58 58 58 58 58 58 59 59 58 58 58 58 58 58 58 58 59 61 62 62 63 62 60 59 60 60 59 59 59 59 57 55 53 53 53 52 54 55 56 56 56 56 57 56 56 55 53 53 53 54 54 54 57
61 61 61 61 61 61 61 61 61 61 61 61 61 61 60 59 59 58 58 58 58 58 58 58 58 57 58 58 58 58 58 58 58 58 58 58 57 56 57 60 59 57 56 56 56 56 56 56 56 55 55 54 55 56 55 55 54 55 54 55 54 57 58 58 57 56 55 56 55 54 54 54 55 51
61 61 61 61 61 61 61 61 61 61 61 61 60 59 59 58 57 57 57 58 58 57 57 57 57 57 57 57 57 57 56 57 57 58 58 57 57 56 56 56 57 57 55 55 55 55 55 56 59 60 60 57 58 57 55 53 52 53 53 54 53 54 57 60 60 59 56 55 56 56 55 54 52 52
61 61 61 61 61 61 61 61 61 60 60 60 60 59 58 56 56 56 57 58 57 57 57 57 57 57 57 57 57 56 56 56 56 56 57 57 57 57 57 57 57 57 56 55 55 56 57 59 60 59 58 58 57 53 51 52 51 52 52 53 55 54 55 57 57 58 60 58 56 52 49 49 49 51
61 61 60 61 61 61 61 61 60 60 60 59 58 56 55 56 56 56 56 57 56 57 57 57 57 57 56 56 57 56 56 56 56 56 57 56 57 56 56 56 56 56 56 56 56 57 57 58 58 57 57 56 55 54 52 52 52 52 52 53 53 55 55 56 54 54 56 58 59 60 59 54 51 48
59 59 58 58 58 58 58 58 58 58 57 57 56 54 55 55 56 56 55 56 56 56 56 56 56 56 56 56 56 56 56 56 55 56 56 56 56 56 56 56 56 56 56 55 55 56 56 57 57 57 55 54 54 53 52 52 51 52 52 52 53 54 55 56 56 55 55 56 55 54 56 56 56 58
57 57 57 56 57 57 56 56 55 56 56 56 55 55 55 55 55 56 56 55 55 56 56 56 56 56 56 56 56 56 56 55 55 55 55 56 56 56 56 56 56 56 55 56 55 55 55 55 55 56 55 55 55 54 53 54 52 53 53 53 52 54 55 56 56 56 55 56 54 53 53 55 55 54
MSLP
1019.46 1019.66 1019.74 1019.78 1019.70 1019.66 1019.66 1019.78 1019.86 1019.94 1020.10 1020.18 1020.26 1020.34 1020.86 1021.30 1022.22 1022.58 1022.42 1021.74 1021.58 1020.54 1020.26 1020.66 1019.66 1019.42 1019.50 1019.66 1019.54 1019.70 1019.70 1019.58 1019.66 1019.82 1019.90 1019.94 1019.94 1019.90 1019.98 1020.06 1020.18 1020.26 1020.30 1020.34 1020.34 1020.38 1020.38 1020.42 1020.46 1020.50 1020.54 1020.58 1020.66 1020.70 1020.78 1020.86 1020.90 1020.94 1020.98 1020.98 1020.94 1020.94 1020.90 1020.90 1020.86 1020.82 1020.82 1020.78 1020.78 1020.74 1020.74 1020.74 1020.70 1020.66
1019.34 1019.38 1019.54 1019.62 1019.66 1019.42 1019.54 1019.58 1019.58 1019.74 1019.86 1020.02 1020.18 1020.34 1020.42 1020.66 1021.38 1021.78 1022.30 1021.70 1020.86 1020.50 1019.94 1019.86 1019.70 1019.30 1019.38 1019.26 1019.38 1019.38 1019.34 1019.18 1019.34 1019.54 1019.62 1019.70 1019.66 1019.62 1019.70 1019.78 1019.86 1019.94 1020.02 1020.06 1020.14 1020.14 1020.14 1020.18 1020.22 1020.26 1020.34 1020.38 1020.42 1020.50 1020.54 1020.58 1020.62 1020.66 1020.70 1020.70 1020.70 1020.74 1020.74 1020.78 1020.78 1020.74 1020.70 1020.70 1020.66 1020.66 1020.62 1020.62 1020.58 1020.58
1019.22 1019.38 1019.46 1019.42 1019.50 1019.34 1019.42 1019.46 1019.50 1019.54 1019.66 1019.78 1019.98 1020.18 1020.34 1020.62 1020.70 1021.14 1021.42 1022.10 1020.26 1019.90 1019.94 1019.46 1019.06 1019.06 1019.02 1018.98 1019.02 1019.06 1019.02 1018.98 1019.10 1019.30 1019.38 1019.38 1019.34 1019.38 1019.46 1019.50 1019.54 1019.58 1019.66 1019.74 1019.82 1019.86 1019.90 1019.94 1019.98 1020.02 1020.10 1020.18 1020.22 1020.26 1020.30 1020.30 1020.34 1020.38 1020.38 1020.42 1020.46 1020.50 1020.54 1020.58 1020.62 1020.62 1020.62 1020.58 1020.58 1020.58 1020.58 1020.54 1020.54 1020.46
1018.98 1019.18 1019.30 1019.26 1019.30 1019.22 1019.38 1019.50 1019.50 1019.50 1019.50 1019.62 1019.82 1019.98 1020.22 1020.34 1020.50 1020.66 1021.06 1021.38 1020.54 1019.66 1019.46 1019.22 1018.98 1018.82 1018.86 1018.82 1019.06 1018.98 1018.90 1018.74 1018.90 1019.06 1019.10 1019.06 1019.14 1019.22 1019.22 1019.18 1019.18 1019.22 1019.30 1019.34 1019.42 1019.50 1019.58 1019.66 1019.74 1019.78 1019.86 1019.90 1019.98 1019.98 1020.02 1020.02 1020.06 1020.10 1020.14 1020.14 1020.18 1020.26 1020.34 1020.38 1020.46 1020.50 1020.50 1020.50 1020.50 1020.50 1020.50 1020.46 1020.42 1020.38
1018.78 1018.90 1019.02 1019.02 1018.94 1019.02 1019.34 1019.34 1019.34 1019.42 1019.42 1019.58 1019.70 1019.82 1019.98 1020.14 1020.26 1020.54 1020.82 1021.10 1020.58 1019.58 1019.14 1019.14 1018.94 1018.66 1018.78 1018.98 1018.74 1018.98 1018.86 1018.90 1018.82 1018.78 1018.78 1018.82 1018.94 1018.90 1018.90 1018.82 1018.78 1018.86 1018.94 1019.02 1019.06 1019.14 1019.22 1019.30 1019.42 1019.50 1019.54 1019.62 1019.66 1019.70 1019.70 1019.70 1019.78 1019.82 1019.86 1019.90 1019.98 1020.06 1020.14 1020.18 1020.26 1020.30 1020.34 1020.38 1020.42 1020.42 1020.42 1020.38 1020.34 1020.34
1018.54 1018.66 1018.90 1018.86 1018.78 1018.82 1019.06 1019.06 1019.18 1019.18 1019.34 1019.50 1019.70 1019.78 1019.86 1019.94 1019.98 1019.98 1020.38 1020.54 1020.66 1020.06 1019.18 1019.10 1018.78 1018.86 1018.66 1018.98 1018.50 1018.78 1018.90 1018.82 1018.74 1018.86 1018.70 1018.58 1018.58 1018.62 1018.58 1018.66 1018.54 1018.46 1018.54 1018.62 1018.70 1018.78 1018.86 1018.94 1019.02 1019.10 1019.14 1019.22 1019.30 1019.34 1019.38 1019.42 1019.46 1019.58 1019.62 1019.70 1019.78 1019.86 1019.94 1020.06 1020.10 1020.10 1020.18 1020.26 1020.26 1020.30 1020.30 1020.30 1020.30 1020.30
1018.34 1018.62 1018.70 1018.62 1018.58 1018.70 1018.98 1018.94 1018.90 1018.94 1019.10 1019.22 1019.50 1019.54 1019.54 1019.66 1019.58 1019.70 1019.78 1020.10 1020.34 1020.14 1019.46 1018.90 1019.06 1018.82 1018.74 1018.86 1018.58 1018.50 1018.42 1018.34 1018.42 1018.66 1018.62 1018.50 1018.38 1018.26 1018.26 1018.34 1018.22 1018.10 1018.18 1018.26 1018.34 1018.42 1018.50 1018.58 1018.62 1018.66 1018.74 1018.78 1018.86 1018.94 1019.02 1019.10 1019.22 1019.34 1019.42 1019.46 1019.54 1019.62 1019.74 1019.82 1019.86 1019.90 1019.98 1020.06 1020.14 1020.18 1020.22 1020.26 1020.26 1020.26
1018.18 1018.30 1018.50 1018.38 1018.38 1018.54 1018.82 1018.74 1018.78 1018.74 1018.78 1019.02 1019.14 1019.30 1019.22 1019.30 1019.30 1019.34 1019.62 1019.66 1019.82 1019.70 1019.90 1018.90 1019.06 1018.70 1018.86 1018.66 1018.46 1018.38 1018.34 1018.46 1018.42 1018.34 1018.18 1018.14 1018.22 1018.10 1018.02 1017.98 1017.94 1017.74 1017.74 1017.82 1017.90 1018.02 1018.10 1018.22 1018.26 1018.30 1018.30 1018.34 1018.46 1018.58 1018.70 1018.82 1018.94 1019.10 1019.18 1019.26 1019.34 1019.46 1019.54 1019.58 1019.66 1019.74 1019.82 1019.90 1019.94 1020.02 1020.10 1020.18 1020.22 1020.22
1017.74 1017.98 1018.10 1017.94 1018.10 1018.34 1018.66 1018.54 1018.62 1018.46 1018.66 1018.66 1018.90 1018.98 1018.94 1019.06 1019.02 1019.18 1019.34 1019.50 1019.62 1019.78 1019.70 1019.06 1018.70 1018.62 1018.62 1018.42 1018.38 1018.30 1018.54 1018.38 1018.34 1018.18 1018.14 1017.98 1017.90 1017.82 1017.62 1017.58 1017.42 1017.38 1017.38 1017.42 1017.50 1017.58 1017.66 1017.74 1017.78 1017.86 1017.90 1017.98 1018.06 1018.18 1018.30 1018.46 1018.66 1018.78 1018.90 1018.98 1019.10 1019.18 1019.26 1019.34 1019.46 1019.54 1019.62 1019.70 1019.74 1019.90 1019.98 1020.06 1020.10 1020.14
1017.26 1017.54 1017.58 1017.58 1017.78 1018.10 1018.38 1018.26 1018.10 1018.14 1018.34 1018.42 1018.62 1018.74 1018.70 1018.74 1018.86 1019.14 1019.22 1019.30 1019.42 1019.54 1019.30 1019.22 1018.94 1018.62 1018.70 1018.50 1018.30 1017.98 1018.10 1018.34 1018.34 1018.18 1017.90 1017.78 1017.62 1017.66 1017.66 1017.34 1017.06 1016.98 1016.98 1017.06 1017.06 1017.14 1017.22 1017.26 1017.34 1017.38 1017.46 1017.54 1017.62 1017.78 1017.94 1018.10 1018.26 1018.42 1018.54 1018.66 1018.78 1018.86 1018.94 1019.10 1019.22 1019.30 1019.38 1019.46 1019.58 1019.70 1019.82 1019.90 1019.98 1020.02
1016.82 1016.94 1017.06 1017.22 1017.46 1017.74 1017.74 1017.78 1017.74 1017.82 1018.02 1018.18 1018.26 1018.22 1018.30 1018.38 1018.74 1018.98 1019.02 1019.06 1019.22 1019.22 1019.18 1018.94 1018.82 1018.62 1018.18 1018.30 1018.30 1017.74 1017.70 1017.78 1017.82 1017.98 1017.98 1017.82 1017.02 1017.14 1017.14 1017.10 1016.70 1016.54 1016.54 1016.34 1016.34 1016.38 1016.42 1016.46 1016.66 1016.78 1016.98 1017.10 1017.18 1017.30 1017.46 1017.62 1017.78 1017.98 1018.14 1018.30 1018.42 1018.50 1018.62 1018.78 1018.90 1018.98 1019.06 1019.22 1019.38 1019.54 1019.70 1019.74 1019.82 1019.86
1016.46 1016.50 1016.58 1016.78 1016.94 1017.10 1017.06 1017.10 1017.10 1017.38 1017.70 1017.78 1018.06 1017.86 1018.02 1018.18 1018.50 1018.70 1018.70 1018.86 1018.90 1018.94 1018.90 1018.82 1018.58 1018.26 1018.22 1018.10 1017.82 1017.70 1017.78 1017.98 1017.82 1017.46 1017.50 1017.50 1016.86 1016.86 1016.58 1016.42 1016.46 1016.22 1016.38 1016.38 1016.22 1015.98 1016.06 1016.14 1016.18 1016.30 1016.46 1016.62 1016.70 1016.78 1016.94 1017.10 1017.30 1017.46 1017.66 1017.82 1017.98 1018.10 1018.22 1018.38 1018.54 1018.62 1018.78 1018.98 1019.22 1019.42 1019.58 1019.70 1019.74 1019.74
1016.14 1016.18 1016.26 1016.38 1016.38 1016.38 1016.38 1016.46 1016.62 1016.78 1016.98 1017.42 1017.78 1017.54 1017.66 1017.90 1018.18 1018.30 1018.46 1018.54 1018.70 1018.70 1018.74 1018.54 1018.22 1018.26 1018.22 1018.02 1018.02 1017.94 1017.94 1017.74 1016.94 1016.46 1017.02 1016.94 1016.26 1016.26 1016.42 1016.02 1015.74 1015.86 1016.10 1015.98 1015.86 1015.74 1015.66 1015.90 1015.90 1015.94 1016.14 1016.10 1016.18 1016.30 1016.42 1016.62 1016.78 1016.94 1017.18 1017.38 1017.54 1017.70 1017.86 1018.02 1018.14 1018.26 1018.46 1018.70 1018.98 1019.26 1019.46 1019.58 1019.62 1019.62
1015.90 1015.86 1015.94 1015.86 1015.90 1016.02 1016.14 1016.26 1016.34 1016.46 1016.54 1016.62 1016.74 1016.74 1017.14 1017.46 1017.78 1017.94 1018.18 1018.30 1018.30 1018.38 1018.58 1018.34 1018.06 1018.18 1017.94 1017.58 1017.50 1017.34 1016.74 1016.50 1016.50 1016.78 1016.70 1016.90 1016.18 1016.58 1016.54 1015.90 1015.42 1015.22 1015.66 1015.82 1015.78 1015.18 1015.02 1015.38 1015.46 1015.50 1015.58 1015.34 1015.54 1015.70 1015.94 1016.10 1016.18 1016.38 1016.66 1016.94 1017.14 1017.34 1017.50 1017.66 1017.78 1017.94 1018.18 1018.46 1018.74 1019.02 1019.26 1019.42 1019.46 1019.46
1015.70 1015.66 1015.58 1015.54 1015.54 1015.74 1015.90 1015.90 1015.90 1015.98 1016.14 1016.26 1016.30 1016.22 1016.30 1016.50 1016.98 1017.50 1017.82 1017.74 1017.70 1018.02 1018.02 1017.66 1017.74 1017.66 1017.38 1016.94 1016.54 1016.50 1016.30 1016.18 1016.22 1016.10 1016.22 1016.42 1016.46 1016.62 1016.82 1016.46 1014.70 1014.50 1014.86 1015.22 1015.26 1014.86 1014.42 1014.78 1015.22 1015.02 1014.98 1014.86 1015.10 1015.18 1015.30 1015.34 1015.62 1015.86 1016.14 1016.50 1016.78 1016.98 1017.14 1017.30 1017.46 1017.62 1017.90 1018.18 1018.46 1018.78 1019.02 1019.18 1019.26 1019.18
1015.30 1015.38 1015.34 1015.26 1015.22 1015.26 1015.26 1015.34 1015.54 1015.70 1015.78 1015.82 1015.90 1015.94 1016.10 1016.26 1016.26 1016.10 1016.34 1016.74 1017.26 1017.42 1017.46 1017.30 1017.10 1017.02 1016.78 1016.26 1015.86 1015.98 1015.94 1015.62 1015.62 1015.62 1015.82 1015.82 1015.86 1015.94 1015.98 1015.50 1015.14 1013.58 1013.82 1014.54 1014.86 1014.58 1014.10 1014.34 1014.62 1014.74 1014.34 1014.34 1014.50 1014.58 1014.62 1014.90 1015.10 1015.38 1015.66 1015.98 1016.26 1016.46 1016.70 1016.86 1017.06 1017.30 1017.58 1017.86 1018.10 1018.42 1018.70 1018.90 1018.90 1018.90
1014.82 1014.90 1015.02 1015.02 1014.90 1014.74 1014.78 1015.06 1015.10 1015.14 1015.18 1015.26 1015.42 1015.50 1015.70 1015.90 1015.94 1015.82 1015.58 1015.54 1015.78 1015.98 1016.58 1016.58 1016.22 1016.18 1015.94 1015.78 1015.10 1014.90 1014.90 1014.74 1015.34 1015.14 1015.34 1015.02 1014.94 1014.70 1014.78 1014.14 1013.82 1013.18 1013.26 1014.02 1014.74 1014.78 1013.78 1014.06 1014.46 1014.50 1013.78 1014.02 1014.14 1014.22 1014.26 1014.38 1014.58 1014.82 1015.10 1015.34 1015.58 1015.86 1016.14 1016.38 1016.62 1016.90 1017.22 1017.50 1017.78 1018.06 1018.34 1018.50 1018.54 1018.62
1014.30 1014.34 1014.58 1014.78 1014.78 1014.46 1014.54 1014.58 1014.70 1014.74 1014.82 1014.78 1014.86 1015.06 1015.34 1015.38 1015.26 1015.26 1015.14 1015.42 1015.86 1015.86 1015.62 1015.50 1015.42 1014.38 1014.86 1014.62 1013.78 1013.66 1013.98 1014.50 1014.50 1014.50 1014.34 1013.94 1014.10 1013.90 1013.54 1012.62 1012.46 1012.50 1012.90 1013.66 1014.06 1014.42 1013.82 1014.02 1014.18 1014.18 1013.70 1013.70 1013.82 1013.74 1013.70 1013.90 1014.06 1014.26 1014.46 1014.66 1014.90 1015.22 1015.54 1015.86 1016.18 1016.50 1016.82 1017.14 1017.46 1017.78 1018.02 1018.18 1018.18 1018.26
1013.70 1013.74 1013.94 1014.14 1014.22 1014.10 1014.22 1014.14 1014.18 1014.34 1014.38 1014.46 1014.50 1014.50 1014.50 1014.54 1014.38 1014.34 1014.34 1014.90 1015.26 1015.22 1015.06 1014.78 1014.10 1013.34 1013.30 1013.30 1012.90 1012.78 1012.98 1013.02 1012.74 1012.62 1012.62 1012.42 1012.34 1012.10 1012.18 1012.62 1012.30 1012.58 1012.42 1012.78 1013.70 1014.22 1013.42 1013.78 1014.22 1013.78 1013.58 1013.58 1013.50 1013.22 1013.26 1013.30 1013.46 1013.66 1013.82 1014.06 1014.30 1014.62 1014.98 1015.38 1015.70 1016.06 1016.42 1016.78 1017.14 1017.42 1017.74 1017.86 1017.86 1017.94
1013.10 1013.22 1013.42 1013.62 1013.70 1013.66 1013.74 1013.62 1013.62 1013.70 1013.74 1014.02 1014.18 1014.22 1013.98 1013.82 1013.58 1013.34 1013.26 1013.66 1013.82 1013.78 1013.74 1013.54 1013.02 1012.42 1012.06 1012.06 1012.02 1011.74 1011.86 1011.90 1011.82 1011.82 1011.78 1011.94 1012.02 1012.54 1012.98 1012.74 1011.90 1012.26 1012.18 1012.54 1013.34 1014.02 1014.06 1014.10 1014.30 1013.74 1013.26 1013.18 1013.26 1012.86 1012.74 1012.62 1012.82 1013.02 1013.26 1013.54 1013.78 1014.10 1014.46 1014.86 1015.22 1015.62 1016.02 1016.38 1016.70 1017.06 1017.38 1017.46 1017.54 1017.62
1012.70 1012.74 1012.82 1013.02 1013.18 1013.26 1013.26 1013.02 1013.14 1013.26 1013.54 1013.70 1013.70 1013.74 1013.54 1013.22 1013.06 1012.78 1012.98 1012.98 1012.98 1012.90 1012.78 1012.38 1011.98 1011.78 1011.54 1011.54 1011.58 1011.46 1011.34 1011.42 1011.30 1012.06 1012.58 1012.18 1011.74 1012.58 1012.94 1012.18 1012.26 1012.86 1013.22 1013.34 1013.38 1013.94 1014.34 1014.06 1014.34 1013.98 1013.10 1012.74 1012.38 1012.18 1012.02 1011.98 1012.10 1012.34 1012.66 1012.98 1013.26 1013.58 1013.98 1014.34 1014.74 1015.14 1015.54 1015.94 1016.26 1016.66 1016.94 1017.10 1017.26 1017.46
1012.30 1012.22 1012.34 1012.46 1012.62 1012.74 1012.66 1012.50 1012.62 1012.78 1013.14 1013.42 1013.26 1013.34 1013.38 1013.06 1012.78 1012.50 1012.70 1012.62 1012.42 1012.10 1011.82 1011.46 1011.42 1011.38 1011.18 1011.06 1011.10 1011.14 1011.06 1011.18 1011.54 1012.14 1012.38 1010.90 1011.30 1011.82 1011.94 1011.98 1012.62 1012.78 1012.42 1011.66 1011.62 1013.14 1012.70 1012.14 1011.82 1011.82 1011.46 1011.70 1011.34 1010.98 1010.98 1011.06 1011.26 1011.66 1012.06 1012.38 1012.58 1013.06 1013.46 1013.86 1014.26 1014.66 1015.06 1015.46 1015.86 1016.26 1016.58 1016.82 1017.10 1017.42
1012.06 1011.98 1011.90 1012.02 1012.06 1012.02 1011.90 1012.02 1012.14 1012.30 1012.70 1012.94 1012.90 1013.02 1013.18 1013.02 1012.58 1012.06 1012.22 1012.14 1012.14 1011.98 1012.06 1011.78 1011.82 1011.42 1010.94 1010.78 1010.94 1010.66 1010.58 1010.62 1010.82 1011.10 1010.98 1010.58 1011.02 1011.10 1011.02 1011.30 1011.90 1012.18 1011.02 1010.74 1010.78 1011.78 1010.74 1010.66 1010.14 1010.54 1011.38 1011.30 1009.94 1009.74 1009.86 1010.38 1010.74 1011.10 1011.42 1011.82 1012.30 1012.58 1013.02 1013.42 1013.82 1014.22 1014.58 1015.06 1015.50 1015.90 1016.26 1016.54 1017.02 1017.22
1011.86 1011.74 1011.70 1011.54 1011.54 1011.50 1011.58 1011.90 1012.26 1012.54 1012.78 1012.74 1012.38 1012.46 1012.78 1012.78 1012.30 1011.26 1011.58 1011.66 1011.82 1012.14 1012.06 1011.38 1011.02 1010.66 1010.42 1010.50 1010.38 1010.26 1010.02 1009.86 1009.78 1009.78 1009.78 1009.66 1009.70 1009.78 1009.66 1009.98 1010.42 1010.34 1009.58 1009.30 1008.54 1009.26 1008.98 1009.54 1009.82 1009.66 1009.62 1010.42 1010.46 1009.66 1009.82 1010.06 1010.26 1010.62 1010.82 1011.34 1011.86 1012.26 1012.78 1013.18 1013.58 1013.82 1014.18 1014.70 1015.18 1015.58 1015.90 1016.30 1016.74 1016.94
1011.62 1011.58 1011.42 1011.14 1011.10 1011.38 1011.66 1011.86 1011.94 1012.02 1012.18 1012.34 1012.38 1012.34 1012.34 1011.90 1011.42 1011.74 1012.06 1011.82 1011.98 1012.46 1012.54 1011.70 1010.86 1010.74 1010.46 1010.14 1009.78 1009.50 1009.18 1008.86 1008.58 1008.42 1008.30 1008.22 1008.18 1008.50 1008.70 1008.90 1009.06 1008.74 1008.06 1007.82 1008.02 1008.62 1008.82 1008.58 1008.90 1009.10 1009.22 1009.14 1009.14 1009.74 1009.46 1009.42 1009.66 1009.94 1010.26 1010.66 1011.26 1011.90 1012.50 1012.98 1013.34 1013.82 1014.18 1014.54 1014.98 1015.26 1015.58 1016.06 1016.38 1016.46
1011.10 1011.06 1011.02 1011.10 1011.38 1011.50 1011.70 1011.82 1011.90 1012.02 1012.14 1012.26 1012.42 1012.18 1012.10 1011.98 1011.98 1012.02 1012.02 1011.98 1012.06 1012.14 1012.02 1011.38 1011.02 1010.70 1010.22 1009.74 1009.42 1008.94 1008.46 1007.98 1007.62 1007.38 1007.14 1006.98 1006.82 1006.62 1006.62 1006.90 1007.14 1007.30 1006.94 1006.54 1006.98 1006.98 1007.26 1007.46 1007.18 1008.02 1008.38 1009.02 1008.98 1009.30 1010.02 1009.98 1009.82 1009.82 1009.94 1010.26 1010.54 1011.18 1011.74 1012.38 1012.98 1013.38 1013.90 1014.42 1014.86 1015.10 1015.30 1015.78 1016.06 1016.14
1010.62 1010.66 1010.90 1011.22 1011.46 1011.46 1011.54 1011.58 1011.66 1011.74 1011.94 1012.14 1012.06 1011.98 1011.98 1011.98 1011.98 1012.14 1012.10 1011.98 1011.94 1011.82 1011.70 1011.42 1011.06 1010.50 1010.02 1009.58 1009.06 1008.62 1008.02 1007.42 1007.14 1006.86 1006.42 1005.90 1005.58 1005.30 1005.02 1004.82 1004.70 1004.70 1004.46 1005.02 1005.26 1005.54 1006.06 1005.90 1005.98 1006.82 1007.38 1007.42 1007.74 1008.26 1008.66 1009.10 1009.18 1009.18 1009.54 1009.86 1010.18 1010.78 1011.22 1011.70 1012.38 1012.86 1013.42 1013.94 1014.26 1014.66 1015.06 1015.50 1015.82 1015.98
1010.62 1010.82 1010.98 1011.22 1011.38 1011.34 1011.34 1011.34 1011.38 1011.50 1011.62 1011.70 1011.74 1011.82 1011.86 1011.86 1011.86 1011.86 1011.78 1011.74 1011.66 1011.62 1011.50 1011.34 1011.02 1010.58 1009.98 1009.62 1009.10 1008.42 1007.78 1007.26 1006.82 1006.38 1005.74 1005.18 1004.70 1004.38 1003.94 1003.46 1003.14 1003.02 1003.26 1003.62 1003.90 1004.18 1004.58 1004.86 1005.02 1005.10 1005.50 1006.30 1006.78 1007.22 1007.70 1007.66 1007.94 1008.38 1008.82 1009.50 1009.98 1010.50 1010.90 1011.22 1011.70 1012.30 1012.90 1013.38 1013.98 1014.46 1014.94 1015.18 1015.54 1015.86
1010.62 1010.86 1011.10 1011.18 1011.14 1011.18 1011.22 1011.26 1011.30 1011.38 1011.46 1011.54 1011.58 1011.58 1011.54 1011.54 1011.54 1011.58 1011.62 1011.58 1011.54 1011.62 1011.50 1011.22 1010.86 1010.42 1009.86 1009.38 1008.70 1008.02 1007.50 1006.94 1006.58 1006.14 1005.26 1004.58 1004.14 1003.74 1003.26 1002.54 1001.98 1001.66 1001.74 1001.90 1002.42 1002.74 1002.98 1003.30 1003.74 1004.14 1004.66 1004.82 1005.34 1005.42 1006.14 1007.10 1007.62 1008.34 1008.30 1009.06 1010.06 1010.30 1010.62 1010.86 1011.22 1011.86 1012.50 1013.06 1013.58 1014.06 1014.30 1014.46 1014.94 1015.22
1010.74 1010.86 1010.94 1011.02 1011.06 1011.14 1011.26 1011.30 1011.34 1011.46 1011.50 1011.46 1011.46 1011.46 1011.42 1011.42 1011.46 1011.46 1011.46 1011.46 1011.46 1011.38 1011.18 1010.94 1010.62 1010.06 1009.46 1008.98 1008.34 1007.70 1007.30 1007.10 1006.70 1006.06 1005.26 1004.70 1004.06 1003.74 1003.38 1002.94 1001.90 1001.34 1001.42 1001.54 1001.58 1001.66 1001.86 1002.14 1002.50 1003.22 1003.78 1003.86 1004.06 1004.82 1005.50 1006.58 1007.66 1007.46 1007.86 1008.22 1008.58 1009.74 1010.34 1010.66 1011.06 1011.38 1011.98 1012.66 1013.18 1013.54 1013.74 1014.02 1014.26 1014.62
1010.70 1010.86 1010.94 1011.06 1011.18 1011.30 1011.38 1011.42 1011.46 1011.50 1011.46 1011.46 1011.42 1011.38 1011.30 1011.26 1011.26 1011.22 1011.22 1011.18 1011.18 1011.02 1010.82 1010.50 1010.06 1009.54 1009.02 1008.58 1008.26 1007.86 1007.58 1007.10 1006.26 1005.82 1005.34 1004.86 1003.90 1003.62 1003.22 1002.90 1001.54 1000.90 1000.70 1000.66 1000.66 1000.62 1000.66 1000.86 1001.30 1001.94 1002.86 1003.34 1004.14 1004.38 1004.70 1005.26 1006.42 1007.18 1007.42 1007.66 1008.26 1008.98 1009.78 1010.38 1010.66 1011.10 1011.66 1012.26 1012.74 1013.18 1013.54 1013.94 1014.22 1014.22
1010.74 1010.94 1011.14 1011.26 1011.30 1011.38 1011.50 1011.50 1011.54 1011.54 1011.50 1011.46 1011.34 1011.22 1011.14 1011.10 1011.06 1010.94 1010.82 1010.70 1010.70 1010.58 1010.38 1010.10 1009.74 1009.38 1009.10 1008.82 1008.22 1007.66 1007.30 1006.70 1005.94 1005.58 1005.30 1004.74 1003.78 1003.14 1003.14 1002.54 1001.34 1000.90 1000.42 1000.02 999.70 999.50 999.58 999.70 1000.02 1000.42 1000.90 1001.58 1002.62 1003.22 1003.90 1004.50 1004.90 1005.74 1006.62 1007.14 1007.66 1008.06 1008.66 1009.54 1010.18 1010.66 1011.22 1011.82 1012.50 1012.90 1013.26 1013.66 1013.94 1014.22
1010.82 1010.98 1011.10 1011.18 1011.26 1011.38 1011.42 1011.46 1011.54 1011.50 1011.42 1011.38 1011.38 1011.30 1011.10 1010.90 1010.78 1010.74 1010.66 1010.58 1010.38 1010.18 1010.02 1009.86 1009.66 1009.30 1008.90 1008.46 1007.94 1007.54 1006.98 1006.34 1005.86 1005.22 1004.94 1004.10 1003.90 1002.70 1002.58 1002.10 1001.30 1001.02 1000.38 999.70 999.38 999.26 999.38 999.42 999.50 999.78 1000.14 1000.62 1000.98 1002.02 1003.38 1004.62 1004.74 1004.66 1005.62 1006.50 1007.26 1008.18 1008.46 1008.86 1009.34 1010.22 1010.94 1011.46 1012.06 1012.62 1013.14 1013.50 1013.62 1013.82
1010.42 1010.78 1011.02 1011.38 1011.46 1011.50 1011.50 1011.54 1011.66 1011.66 1011.66 1011.54 1011.26 1011.10 1011.10 1011.02 1010.90 1010.70 1010.54 1010.46 1010.30 1010.14 1010.06 1009.82 1009.54 1009.18 1008.78 1008.34 1007.86 1007.42 1006.90 1005.94 1005.26 1004.70 1004.66 1003.70 1003.22 1002.82 1002.14 1001.66 1000.98 1000.46 1000.06 999.46 999.06 998.94 998.94 998.90 999.14 999.58 1000.02 1000.62 1001.22 1001.58 1001.90 1002.94 1004.38 1004.66 1005.26 1006.22 1007.06 1007.90 1008.42 1008.82 1009.42 1009.82 1010.26 1010.74 1011.62 1012.50 1012.90 1013.14 1013.42 1013.62
1010.54 1010.86 1011.10 1011.50 1011.54 1011.54 1011.54 1011.62 1011.78 1011.78 1011.70 1011.66 1011.62 1011.50 1011.22 1010.94 1010.74 1010.58 1010.54 1010.46 1010.34 1010.22 1010.02 1009.70 1009.38 1008.98 1008.66 1008.30 1007.82 1007.34 1006.62 1005.94 1004.98 1004.10 1003.54 1003.22 1002.62 1002.18 1001.66 1001.18 1000.54 1000.22 999.86 999.42 999.10 998.78 998.70 998.82 999.42 1000.46 1000.86 1001.22 1001.90 1002.42 1002.50 1002.22 1002.62 1003.90 1005.06 1006.10 1006.62 1007.54 1008.50 1008.94 1009.46 1010.02 1010.34 1010.86 1011.42 1012.10 1012.66 1012.90 1013.10 1013.30
1011.06 1011.14 1011.30 1011.46 1011.50 1011.50 1011.62 1011.78 1011.70 1011.66 1011.70 1011.74 1011.70 1011.50 1011.22 1010.90 1010.74 1010.82 1010.78 1010.54 1010.42 1010.18 1009.94 1009.58 1009.18 1008.78 1008.42 1008.10 1007.62 1007.10 1006.50 1005.82 1004.94 1004.06 1003.18 1002.54 1002.06 1001.46 1000.94 1000.54 1000.18 999.82 999.50 999.18 998.70 998.50 998.66 999.26 999.66 1000.06 1000.70 1001.66 1002.30 1003.26 1003.50 1003.42 1002.86 1002.82 1004.46 1006.18 1007.02 1007.58 1008.26 1008.90 1009.46 1009.98 1010.30 1010.78 1011.38 1011.90 1012.42 1012.66 1012.86 1012.94
1011.06 1011.14 1011.18 1011.30 1011.46 1011.58 1011.66 1011.62 1011.70 1011.74 1011.74 1011.66 1011.50 1011.38 1011.34 1011.26 1011.02 1010.94 1010.74 1010.50 1010.30 1010.10 1009.90 1009.62 1009.26 1008.86 1008.46 1007.98 1007.50 1006.94 1006.26 1005.62 1004.78 1003.78 1002.90 1001.98 1001.42 1000.98 1000.58 1000.10 999.82 999.54 999.30 998.82 998.46 998.46 998.62 998.94 999.10 999.70 1000.86 1001.90 1002.46 1002.98 1004.26 1004.70 1004.50 1003.94 1004.02 1005.62 1007.06 1007.54 1008.14 1008.90 1009.62 1010.26 1010.34 1010.70 1011.62 1011.86 1012.10 1012.38 1012.58 1012.74
1010.90 1011.06 1011.22 1011.42 1011.50 1011.46 1011.46 1011.62 1011.70 1011.70 1011.62 1011.46 1011.38 1011.30 1011.26 1011.18 1011.06 1010.94 1010.74 1010.54 1010.34 1010.10 1009.82 1009.58 1009.22 1008.82 1008.38 1007.90 1007.42 1006.82 1006.18 1005.54 1004.86 1003.98 1003.10 1002.22 1001.46 1000.70 1000.26 999.82 999.42 999.14 998.98 998.50 998.42 998.42 998.50 998.90 999.58 1000.06 1000.26 1001.10 1002.18 1003.38 1004.26 1005.06 1005.10 1005.62 1005.54 1005.10 1006.46 1007.66 1008.18 1008.86 1009.78 1010.06 1010.66 1011.34 1011.70 1012.02 1012.14 1012.30 1012.34 1012.50
1010.86 1011.10 1011.26 1011.34 1011.38 1011.42 1011.58 1011.58 1011.54 1011.54 1011.42 1011.30 1011.26 1011.26 1011.18 1011.06 1011.02 1010.94 1010.70 1010.50 1010.34 1010.22 1010.02 1009.70 1009.30 1008.90 1008.46 1007.86 1007.38 1006.94 1006.38 1005.74 1005.02 1004.26 1003.50 1002.78 1002.06 1001.06 1000.06 999.66 999.34 999.10 998.94 998.98 998.94 998.82 999.06 999.74 1000.06 1000.38 1000.70 1000.90 1001.34 1001.94 1002.38 1003.74 1005.82 1006.42 1006.66 1006.62 1007.14 1007.58 1008.34 1008.82 1009.34 1009.90 1010.78 1011.66 1012.06 1012.26 1012.26 1012.46 1012.62 1012.82
1011.02 1011.02 1011.02 1011.14 1011.34 1011.34 1011.34 1011.34 1011.30 1011.26 1011.22 1011.18 1011.18 1011.14 1011.18 1011.14 1011.06 1010.90 1010.66 1010.46 1010.38 1010.26 1010.14 1009.82 1009.42 1008.94 1008.38 1007.90 1007.50 1007.06 1006.58 1006.10 1005.50 1004.86 1004.22 1003.50 1002.78 1001.82 1000.82 1000.02 1000.10 1000.22 1000.22 1000.34 1000.38 1000.42 1000.46 1000.70 1000.90 1001.46 1002.14 1002.98 1003.46 1003.90 1003.66 1004.42 1006.06 1006.94 1007.54 1007.90 1007.98 1007.82 1008.26 1008.38 1008.90 1009.82 1010.98 1011.38 1011.74 1011.98 1012.26 1012.54 1012.54 1012.94
1010.82 1010.90 1011.10 1011.14 1011.14 1011.14 1011.18 1011.14 1011.14 1011.06 1011.06 1011.10 1011.10 1011.14 1011.14 1011.10 1010.98 1010.78 1010.66 1010.58 1010.50 1010.42 1010.14 1009.78 1009.42 1009.06 1008.66 1008.14 1007.74 1007.50 1007.06 1006.46 1005.90 1005.42 1004.90 1004.26 1003.58 1002.98 1002.18 1001.66 1001.58 1001.10 1001.10 1001.50 1001.42 1001.66 1002.10 1001.98 1001.50 1000.98 1001.66 1002.90 1004.02 1004.14 1004.30 1005.34 1006.82 1007.82 1008.18 1008.58 1008.70 1008.38 1007.82 1007.78 1008.50 1009.46 1010.18 1010.94 1011.22 1011.62 1012.06 1012.34 1012.50 1012.78
1010.82 1010.98 1011.02 1010.98 1011.06 1011.10 1011.06 1011.02 1010.98 1011.02 1011.06 1011.14 1011.18 1011.14 1011.10 1011.02 1010.82 1010.70 1010.62 1010.54 1010.46 1010.26 1010.10 1009.90 1009.58 1009.26 1008.86 1008.46 1008.10 1007.70 1007.42 1006.98 1006.50 1006.02 1005.50 1005.02 1004.46 1003.98 1003.54 1003.14 1002.94 1002.50 1002.10 1002.46 1002.46 1002.78 1003.06 1002.82 1002.50 1002.18 1002.46 1002.78 1003.42 1004.22 1005.50 1005.82 1006.58 1007.54 1008.38 1008.86 1008.86 1008.58 1008.26 1008.26 1008.70 1009.14 1009.50 1010.26 1010.94 1011.50 1012.14 1012.62 1012.62 1012.66
1010.86 1010.94 1011.02 1011.02 1010.98 1010.90 1010.86 1010.90 1010.98 1011.10 1011.18 1011.22 1011.22 1011.14 1011.06 1010.86 1010.70 1010.54 1010.54 1010.46 1010.38 1010.22 1010.06 1009.90 1009.66 1009.38 1009.06 1008.74 1008.38 1008.10 1007.78 1007.34 1006.98 1006.50 1006.02 1005.58 1005.14 1004.78 1004.54 1004.46 1004.42 1004.18 1003.86 1003.90 1003.86 1003.74 1003.70 1003.46 1003.30 1003.10 1002.94 1003.06 1003.78 1004.18 1005.54 1006.34 1006.58 1007.14 1007.86 1008.38 1008.54 1008.58 1008.66 1008.94 1009.34 1009.62 1009.78 1009.82 1009.94 1010.22 1010.66 1011.22 1012.02 1012.30
1010.98 1011.02 1011.06 1010.94 1010.82 1010.82 1010.86 1011.02 1011.14 1011.22 1011.30 1011.26 1011.22 1011.10 1010.94 1010.78 1010.62 1010.54 1010.58 1010.54 1010.42 1010.22 1010.02 1009.86 1009.66 1009.42 1009.18 1008.94 1008.70 1008.30 1007.94 1007.74 1007.38 1006.86 1006.42 1006.10 1005.78 1005.38 1005.10 1004.98 1004.94 1005.02 1005.14 1005.18 1004.98 1004.70 1004.42 1004.26 1004.26 1004.02 1004.18 1004.94 1005.14 1005.54 1006.50 1006.78 1007.18 1007.54 1007.74 1007.98 1008.30 1008.50 1008.94 1009.42 1009.82 1010.06 1010.14 1010.14 1010.14 1010.22 1010.30 1010.38 1010.58 1010.74
1011.06 1010.98 1010.86 1010.82 1010.86 1011.02 1011.14 1011.26 1011.30 1011.30 1011.30 1011.26 1011.10 1010.94 1010.82 1010.70 1010.66 1010.58 1010.50 1010.54 1010.42 1010.22 1009.98 1009.78 1009.66 1009.46 1009.26 1009.06 1008.90 1008.66 1008.38 1008.06 1007.78 1007.30 1006.82 1006.38 1006.02 1005.74 1005.46 1005.38 1005.42 1005.46 1005.70 1005.82 1005.70 1005.82 1005.62 1005.38 1005.14 1004.78 1004.98 1005.38 1005.54 1006.18 1006.86 1007.22 1007.58 1007.66 1007.78 1008.02 1008.34 1008.78 1009.22 1009.58 1009.94 1010.14 1010.22 1010.30 1010.58 1010.46 1010.38 1010.62 1010.66 1010.82
Wind_Speed
5 5 5 6 6 6 5 4 5 5 4 4 5 5 6 6 4 3 3 4 5 4 6 6 4 8 8 8 7 7 8 10 10 8 8 9 8 11 15 16 15 15 16 15 16 16 16 16 16 16 15 14 14 13 13 12 12 11 11 11 11 10 11 9 9 10 9 9 9 9 9 9 9 9
5 5 4 4 6 5 4 6 5 5 6 5 5 5 5 5 6 5 5 7 5 5 3 6 5 3 8 8 7 7 9 11 12 9 9 9 9 14 15 15 16 16 16 16 16 16 16 16 16 15 15 15 15 14 14 13 13 12 12 12 12 12 12 10 10 10 10 10 11 10 9 9 9 8
5 5 6 5 6 5 5 5 5 4 4 6 5 5 4 5 5 6 4 4 5 5 6 6 6 5 6 8 8 7 8 9 11 9 9 9 12 15 13 16 16 17 17 17 17 17 17 16 16 15 15 15 15 15 15 15 14 14 13 13 12 11 11 10 10 10 10 11 11 8 8 8 8 8
6 6 7 7 7 6 4 5 5 5 4 4 5 5 5 5 5 5 6 7 11 4 6 5 4 5 5 5 7 8 7 7 11 9 9 10 12 10 9 14 17 17 17 17 17 17 17 17 16 16 16 15 15 16 15 15 15 15 14 14 13 12 11 10 9 7 9 10 8 7 8 8 9 9
6 7 7 8 7 5 5 6 6 6 5 3 4 4 5 6 5 6 6 7 10 6 4 5 5 2 3 4 6 8 7 7 7 9 9 9 9 9 9 9 14 17 17 18 18 18 18 17 17 17 17 16 16 14 16 16 15 15 14 14 13 11 10 9 8 7 8 8 7 7 8 8 8 7
7 7 8 8 7 6 7 6 7 7 6 5 5 5 5 6 6 6 6 7 5 12 2 4 3 4 3 4 3 7 8 8 5 8 9 8 9 9 8 8 9 15 17 18 18 18 18 17 17 17 18 18 17 16 16 16 15 15 14 14 13 11 10 9 9 8 8 8 8 8 8 7 6 6
7 7 8 9 8 5 6 7 7 6 6 5 6 7 5 7 7 6 7 6 7 9 10 3 4 4 3 6 6 5 6 6 6 7 8 9 8 8 9 9 8 13 16 17 18 18 18 18 17 17 18 18 17 17 16 16 15 14 13 13 12 11 10 10 10 9 8 8 8 8 7 6 5 5
8 9 9 10 8 6 7 8 7 7 6 6 7 7 7 7 8 6 5 7 7 6 9 6 5 3 4 5 5 4 3 5 6 7 7 5 7 8 8 9 9 11 16 17 18 18 18 18 18 18 18 17 17 17 16 16 14 13 13 13 12 11 10 11 10 10 9 8 8 7 6 5 5 4
9 9 10 11 8 6 8 8 8 8 8 7 7 8 7 7 7 5 5 7 6 7 10 9 3 3 4 4 4 3 5 5 5 5 7 8 8 8 8 8 9 12 15 16 17 17 17 18 18 18 18 17 17 16 16 15 14 14 13 13 12 11 12 11 11 10 9 9 8 7 5 5 5 5
9 9 11 10 8 7 9 11 10 8 9 7 7 8 8 8 5 6 6 6 7 7 10 9 9 4 6 5 5 5 6 7 7 7 7 6 6 7 8 9 8 7 8 7 9 12 13 16 18 18 17 17 17 16 15 15 14 14 14 14 13 13 12 12 11 10 10 9 8 7 7 6 5 4
9 10 10 10 8 9 10 11 11 10 8 8 9 10 10 7 5 7 7 7 8 9 9 9 9 10 6 6 9 6 5 6 7 8 7 9 9 8 10 10 8 7 9 11 14 13 12 14 13 15 17 17 16 16 15 15 15 15 15 14 14 14 13 12 12 11 11 9 8 7 7 5 5 4
10 10 10 10 9 11 11 12 12 9 9 7 8 9 7 7 7 8 8 7 8 9 9 10 11 8 8 5 6 2 2 4 7 8 9 12 11 9 9 10 10 8 8 9 8 11 12 12 14 15 15 16 16 17 15 16 16 16 15 15 14 15 14 13 13 12 11 9 8 8 7 6 6 5
10 10 10 9 10 12 15 16 14 12 10 8 9 10 8 8 8 8 7 7 7 8 9 10 8 9 8 8 7 8 8 11 15 5 7 11 11 8 7 9 9 8 8 9 9 9 9 10 10 9 8 9 13 14 16 12 16 17 16 16 15 15 15 14 13 12 11 10 9 8 8 8 7 6
10 10 10 10 15 15 16 16 16 17 16 16 13 12 8 9 9 9 8 8 8 9 9 11 10 10 11 10 9 11 12 10 7 7 7 9 10 4 8 9 7 8 8 10 11 11 8 9 10 8 10 9 10 8 9 10 11 15 17 16 16 16 15 15 14 13 12 11 10 9 9 9 9 8
10 9 10 10 12 13 13 15 18 18 18 18 19 20 18 13 11 9 10 10 10 9 10 10 9 11 13 12 11 11 11 9 11 11 8 9 7 8 9 13 8 7 12 11 11 12 8 9 11 11 11 10 8 8 10 14 17 17 18 18 17 16 16 15 15 13 13 12 11 11 11 11 10 8
10 10 10 9 9 9 12 12 12 14 17 19 19 20 19 18 18 17 15 12 10 10 11 11 12 11 12 14 11 10 9 12 10 9 8 10 11 11 12 12 14 6 11 12 11 12 6 7 10 10 11 9 9 11 13 16 17 18 17 18 18 18 17 16 16 15 14 13 13 13 12 12 11 9
11 10 10 10 9 10 14 12 11 11 12 15 20 20 19 18 19 20 22 20 15 10 11 12 14 13 13 14 14 12 12 9 10 9 10 11 12 13 13 15 13 10 10 8 8 11 10 8 9 12 11 8 8 10 13 17 17 18 18 18 19 19 18 18 17 16 15 14 14 14 14 14 11 10
12 12 11 10 10 10 9 10 11 11 12 12 11 11 11 13 17 20 23 21 18 16 14 14 16 16 11 16 16 13 9 10 13 12 14 13 13 14 16 18 16 4 9 11 8 8 7 6 9 11 10 7 8 9 12 17 18 18 19 19 19 19 19 18 17 17 16 16 15 15 15 14 12 12
12 12 11 11 12 11 10 9 11 11 12 12 12 12 12 12 13 14 15 12 13 14 14 16 19 20 16 16 18 15 12 14 15 14 16 17 16 15 10 10 11 7 8 8 7 12 6 6 8 11 8 6 9 9 12 17 19 19 19 20 20 20 19 18 18 17 17 16 16 16 15 14 13 13
11 11 11 11 11 12 11 13 17 16 13 12 13 13 14 13 13 14 13 15 15 16 15 16 19 19 20 20 19 18 15 14 14 13 12 11 12 10 10 14 11 11 6 8 8 7 5 1 8 8 7 7 9 9 9 14 19 20 20 20 20 20 18 18 18 18 18 17 17 17 16 15 14 13
12 11 11 11 11 11 11 14 16 17 15 13 14 14 14 14 13 13 7 15 21 22 24 26 27 28 28 26 25 25 25 19 16 10 11 15 13 11 13 15 10 6 3 4 9 9 8 3 7 9 7 8 11 11 11 9 16 20 20 20 20 19 18 19 19 19 18 18 18 17 17 15 14 11
11 12 16 14 12 12 12 15 17 17 14 13 14 14 14 16 16 12 6 7 11 21 26 28 27 27 27 28 27 26 26 24 17 12 16 19 12 13 14 14 7 5 7 12 11 7 13 9 11 13 9 8 9 11 10 11 12 17 17 20 20 18 19 19 19 19 19 19 18 18 17 15 11 6
10 11 12 15 15 14 15 17 16 17 13 11 12 12 12 15 17 14 8 10 9 9 9 12 13 16 20 20 18 19 25 25 22 17 18 18 16 17 15 11 8 11 13 8 14 14 15 15 14 13 6 10 9 9 10 10 9 10 10 11 12 17 19 19 19 20 20 19 19 18 16 15 10 6
10 10 10 12 16 19 19 15 12 9 8 10 12 10 11 13 17 14 9 8 8 2 4 11 11 13 11 11 11 13 15 17 18 19 18 18 18 18 18 13 14 15 12 10 20 16 12 12 13 13 15 11 8 5 8 9 10 10 10 9 9 12 15 16 15 21 20 19 18 17 16 13 11 6
10 9 9 9 10 10 9 10 12 13 13 11 10 10 11 13 12 11 9 10 5 6 7 15 14 12 11 12 11 12 12 13 14 15 17 18 19 18 18 16 16 17 16 14 18 14 14 13 15 12 13 12 6 2 5 10 9 10 10 11 11 8 9 9 7 9 12 16 17 16 15 13 14 9
9 9 8 5 4 7 6 4 3 1 1 4 5 8 12 15 16 13 8 8 6 3 8 11 11 11 12 12 12 13 14 14 14 14 15 16 18 18 18 19 19 17 17 16 25 20 17 14 17 14 12 11 9 7 3 4 4 7 8 9 10 10 11 10 9 9 9 8 8 9 11 12 13 14
7 1 2 4 4 4 3 2 4 4 4 3 5 10 11 11 12 9 6 6 6 5 8 9 11 11 12 13 13 13 14 13 13 13 14 16 17 17 18 19 20 20 18 15 20 21 18 16 14 16 14 14 15 12 9 9 7 7 8 9 9 8 9 10 10 10 9 8 8 11 12 9 11 12
3 4 2 2 2 2 2 3 4 4 2 3 5 7 7 8 7 4 4 4 4 5 6 8 9 11 11 11 12 13 12 13 13 14 15 16 17 17 17 19 21 21 20 18 18 20 19 19 16 16 17 15 15 15 14 9 7 13 12 7 7 7 9 9 10 9 8 8 7 6 6 6 6 7
2 4 5 4 4 2 1 2 3 3 3 4 6 7 8 5 2 3 4 5 4 5 6 7 8 10 10 11 13 13 14 15 15 15 16 17 17 17 19 20 20 19 16 16 18 19 20 19 18 16 16 16 15 13 13 12 9 9 11 12 7 8 9 9 10 10 9 8 8 8 8 8 7 7
9 8 7 5 3 3 3 2 3 3 3 6 7 7 5 2 3 3 3 4 4 6 6 7 9 10 10 11 12 14 14 14 15 15 16 16 16 15 15 16 18 17 15 15 17 18 19 19 18 16 16 16 17 14 12 11 8 12 12 13 11 7 5 8 8 9 10 9 8 8 7 7 7 8
5 6 5 4 3 3 3 3 1 0 3 3 2 2 2 3 3 3 3 5 6 6 7 8 8 9 10 10 11 12 11 13 14 13 15 15 17 15 15 16 20 17 14 13 15 18 20 21 19 18 17 14 10 13 13 12 12 11 12 12 13 12 9 9 8 9 9 8 7 6 5 4 3 5
5 5 4 4 3 3 3 2 2 2 1 2 3 5 4 5 3 4 6 6 5 6 6 7 8 9 9 10 11 12 12 13 14 13 13 14 17 15 14 16 18 16 14 13 15 18 20 21 22 20 21 18 17 15 12 15 16 15 13 12 11 7 11 13 10 9 9 9 7 7 6 6 6 5
5 5 4 4 4 4 4 4 5 5 5 5 3 2 4 5 5 5 5 6 7 7 7 9 9 11 10 11 11 12 13 13 14 13 14 15 15 17 14 16 16 16 17 16 15 15 15 15 16 17 17 17 19 17 16 13 10 13 14 13 13 11 10 10 11 10 9 9 8 7 6 5 5 6
6 5 6 5 4 4 5 5 5 5 5 6 7 6 5 5 4 5 5 6 7 8 8 8 9 10 11 11 12 12 14 15 14 14 14 16 15 15 14 14 14 14 15 14 11 10 11 12 12 12 10 7 6 12 17 17 13 12 12 13 12 11 8 10 9 11 11 9 9 7 5 5 5 5
5 5 6 4 4 4 4 5 4 3 4 5 5 6 6 4 5 6 6 7 7 7 8 8 9 9 10 11 11 13 13 14 15 14 12 12 12 13 13 15 14 13 12 12 10 7 8 12 10 6 8 9 7 5 9 4 18 13 13 12 12 11 10 9 10 9 9 7 8 8 6 4 6 6
6 5 5 4 4 4 4 2 2 3 3 3 3 4 6 7 7 6 7 8 7 7 8 9 10 10 11 11 12 13 14 14 13 14 15 13 11 10 10 11 11 12 12 13 12 6 8 7 7 12 12 10 10 6 3 11 3 16 16 11 8 11 10 10 9 9 9 8 7 8 7 7 7 6
7 4 5 5 4 2 2 3 2 1 2 3 3 3 5 6 7 6 7 7 7 7 7 8 8 9 10 10 12 12 13 12 13 13 12 11 9 10 11 11 10 10 12 12 8 5 4 8 13 14 11 9 10 11 5 3 6 10 17 14 11 12 12 10 10 8 7 8 6 6 6 6 5 6
7 5 5 4 2 2 2 1 2 2 2 2 3 3 3 4 5 6 6 6 7 7 8 8 8 9 9 10 11 11 12 11 11 12 12 12 13 11 10 10 10 9 9 8 4 5 7 9 9 7 11 13 11 11 10 5 6 7 5 14 14 11 9 11 9 9 7 4 6 5 4 5 5 5
5 5 4 4 4 1 1 1 0 1 2 2 3 4 5 5 5 5 5 6 6 7 7 8 8 8 9 9 10 10 12 13 13 13 14 14 14 15 12 9 9 8 6 4 4 3 6 6 4 3 1 6 11 11 13 14 9 8 10 13 10 11 9 10 9 8 8 5 3 3 2 2 5 7
4 4 4 4 3 1 1 0 0 2 2 3 3 3 4 5 5 5 6 6 7 7 6 7 8 9 9 9 9 10 10 12 12 12 14 14 14 13 11 8 7 11 12 11 11 10 10 10 13 15 17 16 14 12 14 15 9 8 8 7 7 10 11 10 9 10 7 6 6 6 5 2 4 1
4 4 4 2 2 1 1 1 1 2 2 2 3 3 3 4 4 4 4 5 5 6 7 7 8 9 9 10 9 9 9 10 11 11 12 12 13 13 14 12 10 11 15 13 14 14 13 12 17 29 24 17 13 11 13 13 12 8 6 3 2 10 14 12 11 10 7 6 7 7 7 6 5 2
4 4 3 2 2 1 1 2 3 3 3 3 3 4 4 3 3 4 3 4 4 4 5 7 8 8 8 9 9 9 8 8 9 10 11 11 11 12 14 12 10 11 14 14 14 12 9 9 11 13 12 12 12 13 12 12 11 8 5 4 2 4 9 12 11 7 10 10 7 5 5 4 3 2
4 3 2 1 1 2 3 3 3 3 3 3 3 3 3 3 3 3 3 4 5 4 5 6 6 7 7 8 8 7 7 8 7 8 9 10 11 12 12 12 12 11 11 10 9 8 7 7 6 8 10 11 10 12 12 9 8 8 5 5 5 4 5 7 9 9 6 10 9 7 8 7 6 4
1 1 1 0 2 3 4 4 3 2 2 3 3 3 3 3 4 4 3 4 4 5 5 4 5 6 7 7 7 7 7 7 6 6 8 8 9 10 11 12 12 12 11 10 10 9 8 8 8 9 12 11 10 12 11 9 7 5 6 5 4 5 5 4 4 4 4 1 5 3 6 10 7 9
1 1 2 3 3 4 3 3 2 2 2 3 3 3 4 4 4 4 4 3 4 5 4 4 5 5 6 6 6 7 8 8 7 6 5 6 7 8 9 10 10 10 9 7 9 9 7 7 7 8 10 9 8 10 8 7 6 5 5 5 6 6 5 5 5 5 4 3 6 6 6 5 8 9
Wind_Direction
199 205 205 205 212 218 209 211 206 206 202 208 194 183 181 171 196 268 284 262 240 276 204 229 250 207 214 220 219 221 220 224 218 220 223 225 226 230 228 227 228 229 231 231 231 231 232 232 233 234 235 236 235 235 236 239 244 248 252 257 263 269 273 274 273 270 265 265 263 265 269 277 281 283
196 207 212 216 229 229 206 217 213 201 204 205 205 208 206 172 195 200 234 271 214 250 262 214 246 211 214 215 221 214 225 224 217 218 221 225 226 227 226 227 227 229 231 233 233 233 235 235 235 235 236 237 238 238 239 240 242 246 251 255 258 261 264 265 265 263 262 262 266 270 276 283 287 290
190 204 217 217 231 231 228 230 226 221 200 208 196 205 188 199 198 193 187 257 275 196 234 245 235 223 219 214 219 222 227 227 216 221 223 226 229 227 228 228 228 229 230 232 233 234 235 237 238 238 238 238 237 238 239 241 243 245 247 249 250 251 255 258 260 262 262 265 269 270 273 279 283 282
196 206 217 220 223 226 232 242 239 235 227 205 198 197 195 204 204 187 194 220 261 196 214 242 261 232 227 216 219 229 233 229 218 225 225 228 231 231 232 232 230 230 230 232 233 234 235 236 238 240 241 239 239 239 239 239 241 243 244 247 248 250 252 253 254 252 257 263 264 270 271 272 271 275
206 211 220 226 228 213 220 232 237 238 236 221 219 203 193 214 200 188 203 224 263 277 219 228 237 253 206 246 213 229 232 233 228 225 229 227 226 228 229 232 232 230 231 232 234 235 235 236 237 239 241 241 240 238 237 239 239 240 242 244 246 245 246 247 249 247 250 254 255 252 254 259 267 275
216 213 222 233 232 216 223 229 233 232 235 226 227 222 206 220 218 200 197 232 234 269 268 264 261 269 184 247 194 212 226 236 224 227 230 227 223 228 230 231 237 232 230 231 233 235 236 236 237 237 239 240 240 240 240 240 237 237 238 240 241 240 237 237 237 235 239 242 244 246 248 255 264 273
210 216 223 233 229 218 227 235 237 230 232 225 225 233 215 225 225 207 206 211 244 255 269 209 248 242 229 214 245 227 232 235 215 226 231 228 227 227 227 230 236 235 231 231 232 233 235 236 237 237 238 238 238 238 238 238 236 234 234 235 236 235 229 228 229 228 229 230 235 240 243 248 251 257
209 217 224 233 226 216 225 237 237 234 229 225 225 230 230 225 233 218 204 219 230 248 260 262 222 245 231 258 253 252 243 237 232 223 237 236 236 232 229 230 234 236 233 232 231 232 233 234 235 236 237 236 234 233 234 235 234 231 230 231 232 229 224 224 223 223 223 224 224 230 235 233 239 243
215 220 223 232 222 212 225 239 238 234 230 229 222 231 233 228 233 227 217 227 226 248 255 269 237 239 247 248 260 233 245 257 249 244 233 229 230 234 232 230 235 239 239 236 234 233 233 233 233 234 235 235 232 230 230 231 230 227 226 227 225 222 223 222 218 219 219 215 218 217 218 222 228 232
218 221 226 231 221 215 221 234 236 234 235 232 231 234 236 233 227 229 235 231 236 237 254 260 277 233 238 266 245 225 208 233 254 256 247 246 235 230 239 232 231 226 227 229 232 232 234 235 234 233 233 233 232 230 228 227 225 223 222 220 218 218 221 219 215 215 213 212 211 206 209 216 220 226
221 224 227 229 221 221 226 233 235 233 233 230 234 233 237 233 218 228 231 228 233 239 250 258 251 264 248 218 259 242 209 226 225 240 255 254 234 224 227 240 230 226 232 232 226 223 218 220 223 225 228 231 232 231 227 225 221 218 217 215 212 215 219 216 213 211 209 209 204 204 208 212 216 218
226 226 228 228 223 223 228 230 236 228 234 228 238 239 235 234 223 229 232 230 234 242 247 247 257 250 261 257 249 284 195 247 258 226 225 245 246 230 230 231 233 227 224 234 233 230 228 232 231 229 228 228 231 233 230 225 220 215 214 210 209 213 216 213 211 209 208 203 197 202 206 210 220 220
229 231 231 231 229 226 231 232 235 233 226 224 233 240 224 232 228 234 232 233 234 245 249 259 254 258 257 251 258 253 230 228 240 230 192 244 250 244 247 246 229 227 222 234 235 231 215 222 225 220 221 223 223 232 225 223 216 213 210 208 208 212 214 212 209 209 206 196 192 199 208 217 216 215
230 232 231 234 232 230 232 234 235 236 233 228 229 239 221 224 227 231 235 234 234 239 248 250 254 258 254 250 240 247 246 245 262 259 225 237 254 258 257 266 237 210 211 231 235 235 215 214 228 218 224 224 212 221 209 214 207 208 206 206 208 210 212 211 209 208 201 192 190 196 209 218 214 207
232 232 232 237 236 232 233 235 235 235 234 233 234 239 238 227 219 230 233 236 232 235 241 248 251 251 259 255 245 242 253 246 237 242 237 241 251 238 243 257 257 181 198 221 234 242 213 199 221 223 225 220 210 213 216 210 207 205 201 203 206 209 211 211 209 204 198 193 189 195 208 217 210 201
234 234 233 233 234 233 231 233 238 238 238 238 238 239 240 239 235 230 228 235 237 231 242 247 243 248 251 257 252 249 244 249 245 239 234 233 232 236 235 242 248 217 180 209 221 242 218 192 217 229 228 217 210 214 213 208 206 205 202 201 204 207 209 210 206 201 197 193 189 196 208 215 205 197
235 235 236 238 235 238 234 234 237 239 242 236 237 240 242 243 240 242 241 236 237 239 241 246 253 238 248 256 253 239 243 242 249 238 234 234 232 231 235 241 246 234 181 192 218 236 228 177 209 230 232 212 211 219 214 209 205 203 203 201 202 205 207 206 203 200 195 191 190 197 207 211 200 198
235 234 234 237 241 239 235 232 233 238 241 246 242 238 235 238 242 241 242 241 243 248 248 251 255 251 225 247 253 247 231 232 239 238 241 235 236 233 231 236 240 228 145 190 201 239 229 176 212 231 236 208 217 219 211 206 207 205 203 201 201 202 203 201 200 197 193 191 191 198 204 209 201 201
234 234 232 235 240 241 235 233 232 234 238 241 245 247 243 236 237 238 239 231 228 234 238 246 251 257 248 245 252 252 236 231 237 234 238 238 237 242 248 264 254 233 191 181 174 239 222 171 217 235 229 210 221 217 216 207 206 206 203 201 201 200 198 197 197 194 192 191 193 198 205 208 204 205
236 236 234 234 239 242 240 236 228 229 235 240 245 247 249 249 245 241 231 228 227 229 232 237 244 250 250 246 247 248 244 243 244 248 252 260 255 253 247 245 242 235 193 182 194 251 270 135 227 243 227 209 222 220 221 209 204 206 204 201 199 198 193 194 193 192 191 191 192 198 206 206 207 207
239 238 235 233 239 241 241 239 232 230 226 242 245 249 253 253 253 253 225 213 222 229 233 237 240 245 251 253 252 254 252 249 251 260 263 254 246 240 250 252 252 280 64 202 204 218 248 180 207 246 238 211 219 216 215 208 205 204 203 200 198 193 191 191 190 190 190 191 192 199 205 204 210 194
244 242 238 236 237 239 243 238 232 230 221 237 244 250 258 263 263 263 238 232 226 226 231 234 238 243 249 252 254 256 258 257 254 244 248 255 256 247 238 247 236 240 189 211 179 193 225 197 200 214 210 204 219 216 212 204 200 199 202 201 195 190 188 188 188 188 189 189 193 199 202 206 195 173
243 246 244 239 238 240 243 240 234 229 219 238 248 250 258 266 269 268 251 247 248 242 243 257 255 260 256 258 257 257 257 255 251 244 246 257 257 257 250 239 235 243 237 184 164 199 221 212 213 201 199 229 226 210 203 195 193 191 192 196 199 192 185 187 186 187 187 188 192 198 200 202 168 181
241 241 244 244 240 239 244 253 265 274 236 237 251 252 254 264 268 277 284 273 274 356 302 276 266 262 264 260 256 253 254 252 245 244 241 243 245 249 254 234 221 233 227 181 184 204 226 210 223 200 210 213 230 196 183 201 188 195 188 182 187 190 187 185 188 187 184 188 191 197 199 191 168 167
239 242 241 242 251 258 259 245 243 244 243 237 250 259 258 257 289 340 310 303 23 135 257 276 273 278 276 272 267 261 255 248 246 241 236 238 239 240 246 242 231 236 227 210 192 206 220 207 220 202 217 216 213 168 216 190 188 190 184 182 182 166 166 177 176 183 189 187 192 194 201 184 180 174
234 238 240 252 68 70 60 51 41 353 239 231 223 249 255 278 292 292 302 305 303 210 210 245 269 276 276 275 270 264 263 260 255 250 246 240 238 236 235 235 234 234 227 210 195 209 217 219 212 207 206 197 217 192 137 211 187 192 176 183 178 164 168 165 169 174 169 176 190 192 203 188 186 187
239 215 88 95 69 38 11 323 283 260 250 227 233 251 267 272 282 289 279 289 277 230 222 241 256 264 270 276 277 276 276 273 270 268 260 255 250 245 241 235 235 236 232 209 200 209 213 226 206 204 201 199 202 195 188 180 200 162 169 178 167 158 168 160 169 172 169 175 187 188 206 191 182 196
110 101 91 86 65 64 347 310 310 305 262 254 284 292 283 289 288 280 277 283 274 264 251 250 264 270 271 275 277 276 278 279 280 276 273 270 262 258 252 244 237 233 228 216 204 206 211 221 217 207 201 195 201 194 200 198 172 176 174 154 149 160 164 168 168 166 168 166 163 169 179 193 179 178
94 105 138 116 78 61 15 338 346 12 12 348 335 323 319 311 315 312 301 296 299 291 283 278 275 276 279 279 280 285 284 284 285 279 275 269 267 265 261 258 251 242 228 220 208 206 211 217 219 209 207 208 206 205 182 186 165 169 167 146 159 173 170 171 164 165 162 162 170 172 185 188 174 180
115 111 96 101 97 93 66 55 52 22 357 322 315 311 310 310 303 295 297 289 286 285 283 279 278 275 277 275 278 280 284 286 280 280 279 282 280 274 272 270 262 252 240 226 215 211 213 218 219 213 213 212 207 198 179 153 174 170 167 173 168 120 150 159 164 163 157 167 175 177 189 180 179 162
104 105 107 108 130 121 106 98 134 208 302 314 316 325 308 307 299 289 281 280 278 278 281 282 280 283 283 288 288 284 286 281 277 275 279 282 279 280 278 275 273 266 246 228 218 212 209 210 211 206 209 209 197 191 183 169 162 168 176 170 153 166 170 166 164 160 160 162 159 160 151 153 171 177
122 120 125 115 102 116 111 94 54 25 356 344 346 340 333 315 292 278 270 265 256 251 256 273 285 291 297 297 292 292 288 283 283 285 282 279 281 280 280 276 274 273 258 230 220 211 205 206 204 202 205 196 191 191 175 175 174 167 165 163 167 149 145 162 167 161 153 145 137 156 166 171 174 174
112 111 98 80 66 49 48 38 28 15 9 13 358 327 333 332 332 328 339 337 325 323 322 319 316 310 310 301 300 298 296 293 292 291 287 280 278 282 275 272 277 279 269 249 224 214 211 216 212 207 205 199 195 174 164 173 176 159 154 159 152 156 163 164 156 148 138 137 150 152 166 195 182 170
106 90 88 70 68 50 40 40 27 16 6 355 353 354 338 315 309 325 335 334 329 327 321 313 313 312 310 308 309 308 303 301 295 287 279 283 280 277 277 275 273 273 272 265 248 224 222 219 213 210 200 178 148 168 172 164 167 164 149 148 149 153 156 144 142 142 150 150 145 147 155 178 197 180
87 101 91 82 75 66 60 48 36 10 9 1 337 323 315 313 337 343 339 333 328 323 319 314 312 310 312 313 313 309 304 299 298 297 289 278 273 268 271 274 277 279 278 278 274 258 221 202 181 115 102 109 108 28 351 187 158 152 141 150 149 135 138 143 136 138 131 123 131 152 154 160 189 195
94 103 110 103 81 69 71 60 27 20 349 307 292 310 337 340 339 343 332 324 325 323 324 325 322 323 323 321 317 312 308 305 299 300 300 290 278 271 266 270 279 279 276 276 275 225 190 180 148 151 154 149 143 136 89 354 99 139 136 136 127 129 131 133 132 131 132 125 139 146 162 174 191 192
117 114 104 98 100 110 107 66 21 286 273 285 310 344 343 328 323 323 315 316 323 324 322 319 317 319 319 318 316 311 310 310 312 308 297 291 275 273 275 276 275 276 278 272 249 202 186 179 173 166 157 144 158 151 100 45 135 139 137 134 136 139 137 128 126 134 133 124 138 158 159 160 178 204
116 117 106 109 124 102 92 135 217 233 256 313 336 332 313 300 307 315 311 325 327 326 325 324 318 320 320 319 321 321 320 319 314 318 320 317 307 292 283 277 280 279 276 270 229 200 178 167 171 175 160 160 146 127 123 100 92 16 35 131 136 130 123 123 130 140 114 109 154 167 125 137 185 183
102 113 121 118 93 111 173 212 223 10 344 340 349 344 327 314 319 319 329 330 328 326 321 319 319 318 318 322 327 330 332 334 337 337 336 333 327 311 300 289 288 303 313 335 22 62 77 54 29 40 101 147 153 150 134 123 87 86 79 87 108 120 129 141 134 116 123 138 132 114 90 35 85 108
104 106 104 100 140 172 169 201 54 24 352 355 334 312 306 307 320 326 334 334 331 326 317 315 318 323 326 329 334 336 338 345 347 347 345 342 340 340 340 345 51 67 61 55 51 47 54 69 89 88 85 78 70 76 93 89 88 72 74 91 141 148 151 143 132 132 145 157 142 138 156 152 175 329
118 97 96 128 133 116 90 55 31 6 5 339 316 300 297 298 311 324 325 321 320 322 327 327 330 333 331 332 338 342 344 350 356 358 356 351 359 11 33 44 40 63 77 72 76 74 74 90 109 110 106 105 103 95 81 85 95 107 102 98 283 167 144 130 133 143 144 152 150 149 151 170 179 122
95 98 100 89 101 95 71 48 19 9 344 340 319 306 304 305 299 302 309 310 319 325 330 332 333 332 332 334 334 342 346 359 1 5 8 9 10 13 15 23 42 50 72 78 78 83 83 82 76 78 97 107 108 95 93 103 107 108 112 128 112 78 112 118 127 126 145 143 132 117 96 54 51 117
96 105 107 102 85 77 44 36 21 360 328 314 301 300 307 315 329 344 346 340 336 334 336 333 331 333 335 336 337 336 343 360 1 12 24 22 26 31 33 31 32 35 48 59 59 59 64 63 71 85 88 84 83 94 103 107 106 106 114 118 119 103 70 72 83 78 107 154 150 156 164 154 141 188
127 141 158 125 49 33 28 22 2 340 310 291 286 300 326 342 338 333 331 327 327 327 323 330 331 338 341 342 338 339 353 348 342 12 33 36 37 45 53 56 54 52 46 40 46 48 46 53 45 61 72 70 80 88 98 99 100 116 118 109 101 104 111 99 78 83 80 184 248 218 168 156 152 164
183 176 94 43 45 26 21 354 341 316 309 316 329 347 347 345 335 327 327 325 319 317 326 334 340 338 342 345 354 351 340 333 332 343 354 33 46 48 58 68 67 62 54 41 54 41 34 43 45 59 76 79 88 103 111 112 114 101 92 99 108 109 122 134 145 164 187 206 18 346 234 132 95 101